TimeEST,TemperatureF,Dew PointF,Humidity,Sea Level PressureIn,VisibilityMPH,Wind Direction,Wind SpeedMPH,Gust SpeedMPH,PrecipitationIn,Events,Conditions,WindDirDegrees,DateUTC
12:20 AM,28.4,24.8,86,30.52,10.0,Calm,Calm,-,N/A,,Clear,0,2013-01-19 05:20:00
12:37 AM,28.4,24.8,86,30.51,10.0,Calm,Calm,-,N/A,,Clear,0,2013-01-19 05:37:00
12:57 AM,26.6,26.6,100,30.51,10.0,Calm,Calm,-,N/A,,Clear,0,2013-01-19 05:57:00
1:15 AM,27.3,26.2,96,30.51,10.0,Calm,Calm,-,N/A,,Clear,0,2013-01-19 06:15:00
1:35 AM,27.3,25.9,94,30.51,10.0,Calm,Calm,-,N/A,,Clear,0,2013-01-19 06:35:00
1:55 AM,27.1,26.2,96,30.50,10.0,Calm,Calm,-,N/A,,Clear,0,2013-01-19 06:55:00
2:15 AM,27.0,25.3,94,30.50,10.0,Calm,Calm,-,N/A,,Clear,0,2013-01-19 07:15:00
2:35 AM,27.0,25.5,94,30.50,10.0,Calm,Calm,-,N/A,,Clear,0,2013-01-19 07:35:00
2:55 AM,27.0,25.5,94,30.49,10.0,Calm,Calm,-,N/A,,Clear,0,2013-01-19 07:55:00
3:15 AM,26.2,24.8,94,30.49,10.0,Calm,Calm,-,N/A,,Clear,0,2013-01-19 08:15:00
3:35 AM,25.7,24.8,96,30.49,10.0,Calm,Calm,-,N/A,,Clear,0,2013-01-19 08:35:00
3:55 AM,25.5,24.4,96,30.49,10.0,Calm,Calm,-,N/A,,Clear,0,2013-01-19 08:55:00
4:15 AM,24.8,23.9,96,30.49,10.0,Calm,Calm,-,N/A,,Clear,0,2013-01-19 09:15:00
4:35 AM,25.3,24.6,97,30.49,10.0,Calm,Calm,-,N/A,,Clear,0,2013-01-19 09:35:00
4:55 AM,25.3,24.4,96,30.49,10.0,Calm,Calm,-,N/A,,Clear,0,2013-01-19 09:55:00
5:15 AM,24.8,23.9,96,30.50,10.0,Calm,Calm,-,N/A,,Clear,0,2013-01-19 10:15:00
5:35 AM,23.9,23.0,96,30.50,10.0,Calm,Calm,-,N/A,,Clear,0,2013-01-19 10:35:00
5:55 AM,24.4,23.9,98,30.50,10.0,Calm,Calm,-,N/A,,Clear,0,2013-01-19 10:55:00
6:15 AM,24.3,23.7,98,30.50,10.0,Calm,Calm,-,N/A,,Clear,0,2013-01-19 11:15:00
6:35 AM,24.6,24.3,99,30.49,10.0,Calm,Calm,-,N/A,,Clear,0,2013-01-19 11:35:00
6:55 AM,24.4,23.9,98,30.49,10.0,Calm,Calm,-,N/A,,Clear,0,2013-01-19 11:55:00
8:15 AM,24.4,23.5,96,30.49,10.0,Calm,Calm,-,N/A,,Clear,0,2013-01-19 13:15:00
8:55 AM,27.3,26.2,96,30.49,10.0,Calm,Calm,-,N/A,,Clear,0,2013-01-19 13:55:00
9:17 AM,30.2,28.4,93,30.49,10.0,Calm,Calm,-,N/A,,Clear,0,2013-01-19 14:17:00
9:37 AM,33.8,26.6,75,30.49,10.0,Calm,Calm,-,N/A,,Clear,0,2013-01-19 14:37:00
9:57 AM,35.6,28.4,75,30.49,10.0,Calm,Calm,-,N/A,,Clear,0,2013-01-19 14:57:00
10:37 AM,37.4,26.6,65,30.48,10.0,SSW,3.5,-,N/A,,Clear,200,2013-01-19 15:37:00
10:58 AM,39.2,24.8,56,30.46,10.0,SSW,4.6,-,N/A,,Clear,210,2013-01-19 15:58:00
11:17 AM,41.0,24.8,53,30.45,10.0,SSW,4.6,-,N/A,,Clear,200,2013-01-19 16:17:00
11:37 AM,42.8,26.6,53,30.43,10.0,West,3.5,-,N/A,,Clear,260,2013-01-19 16:37:00
11:57 AM,42.8,26.6,53,30.42,10.0,West,3.5,-,N/A,,Clear,270,2013-01-19 16:57:00
12:17 PM,44.6,26.6,49,30.40,10.0,West,4.6,-,N/A,,Clear,260,2013-01-19 17:17:00
12:57 PM,46.4,26.6,46,30.36,10.0,SSW,5.8,-,N/A,,Clear,210,2013-01-19 17:57:00
1:18 PM,48.2,26.6,43,30.34,10.0,SW,6.9,-,N/A,,Clear,230,2013-01-19 18:18:00
1:37 PM,48.2,26.6,43,30.33,10.0,WSW,5.8,-,N/A,,Clear,240,2013-01-19 18:37:00
1:57 PM,50.0,23.0,35,30.32,10.0,SSW,8.1,-,N/A,,Clear,200,2013-01-19 18:57:00
2:17 PM,51.8,23.0,33,30.31,10.0,SW,5.8,-,N/A,,Clear,220,2013-01-19 19:17:00
2:37 PM,51.8,24.8,35,30.30,10.0,SSW,5.8,-,N/A,,Clear,210,2013-01-19 19:37:00
2:57 PM,51.8,23.0,33,30.29,10.0,South,8.1,-,N/A,,Clear,190,2013-01-19 19:57:00
3:17 PM,51.8,23.0,33,30.29,10.0,South,3.5,-,N/A,,Clear,190,2013-01-19 20:17:00
3:37 PM,51.8,23.0,33,30.27,10.0,SSW,8.1,-,N/A,,Clear,200,2013-01-19 20:37:00
3:57 PM,51.8,23.0,33,30.27,10.0,SSW,6.9,-,N/A,,Clear,210,2013-01-19 20:57:00
4:18 PM,51.8,24.8,35,30.26,10.0,SW,6.9,-,N/A,,Clear,220,2013-01-19 21:18:00
4:37 PM,51.8,23.0,33,30.26,10.0,South,5.8,-,N/A,,Clear,180,2013-01-19 21:37:00
4:57 PM,51.8,24.8,35,30.26,10.0,South,10.4,-,N/A,,Clear,190,2013-01-19 21:57:00
5:17 PM,50.0,24.8,37,30.26,10.0,South,6.9,-,N/A,,Clear,180,2013-01-19 22:17:00
5:37 PM,48.2,24.8,40,30.26,10.0,South,4.6,-,N/A,,Clear,170,2013-01-19 22:37:00
5:57 PM,44.6,30.2,57,30.25,10.0,Calm,Calm,-,N/A,,Clear,0,2013-01-19 22:57:00
6:17 PM,42.8,28.4,57,30.25,10.0,SSE,3.5,-,N/A,,Clear,160,2013-01-19 23:17:00
6:57 PM,39.2,30.2,70,30.25,10.0,Calm,Calm,-,N/A,,Clear,0,2013-01-19 23:57:00
7:17 PM,39.2,28.4,65,30.26,10.0,Calm,Calm,-,N/A,,Clear,0,2013-01-20 00:17:00
7:37 PM,39.2,28.4,65,30.26,10.0,Calm,Calm,-,N/A,,Clear,0,2013-01-20 00:37:00
8:00 PM,37.4,28.4,70,30.25,10.0,Calm,Calm,-,N/A,,Clear,0,2013-01-20 01:00:00
8:17 PM,37.4,28.4,70,30.25,10.0,Calm,Calm,-,N/A,,Clear,0,2013-01-20 01:17:00
8:37 PM,39.2,28.4,65,30.25,10.0,SSW,4.6,-,N/A,,Clear,200,2013-01-20 01:37:00
9:00 PM,42.8,28.4,57,30.24,10.0,Calm,Calm,-,N/A,,Clear,0,2013-01-20 02:00:00
9:17 PM,42.8,28.4,57,30.24,10.0,SSW,4.6,-,N/A,,Clear,200,2013-01-20 02:17:00
9:37 PM,42.8,28.4,57,30.23,10.0,South,5.8,-,N/A,,Clear,190,2013-01-20 02:37:00
10:17 PM,42.8,28.4,57,30.21,10.0,SSW,4.6,-,N/A,,Clear,200,2013-01-20 03:17:00
10:37 PM,42.8,28.4,57,30.21,10.0,SW,5.8,-,N/A,,Clear,220,2013-01-20 03:37:00
10:57 PM,42.8,28.4,57,30.21,10.0,SW,5.8,-,N/A,,Clear,220,2013-01-20 03:57:00
11:17 PM,42.8,28.4,57,30.20,10.0,SSW,5.8,-,N/A,,Clear,210,2013-01-20 04:17:00
11:37 PM,41.0,28.4,61,30.19,10.0,SSW,5.8,-,N/A,,Clear,210,2013-01-20 04:37:00
11:57 PM,41.0,30.2,65,30.19,10.0,SW,6.9,-,N/A,,Clear,220,2013-01-20 04:57:00